IT9IRS-1 Weather Reports


Display with metric or nautical units.
time (UTC)temp
F
wind
direction
speed
MPH
gust
MPH
rain 1hr
in
rain 24hr
in
rain mn
in
humidity
%
barometer
mb
20260502193003 59 20 6.0 8.0 0.00 0.00 0.00 62 1017.3
20260502192503 59 356 7.0 10.0 0.00 0.00 0.00 62 1017.3
20260502192003 59 357 8.0 10.0 0.00 0.00 0.00 62 1017.3
20260502191504 60 10 7.0 10.0 0.00 0.00 0.00 61 1017.3
20260502191003 60 23 7.0 9.0 0.00 0.00 0.00 61 1017.3
20260502190503 60 19 7.0 8.0 0.00 0.00 0.00 61 1017.3
20260502190004 60 10 9.0 12.0 0.00 0.00 0.00 61 1017.3
20260502185503 60 21 10.0 13.0 0.00 0.00 0.00 61 1016.3
20260502185003 61 26 9.0 13.0 0.00 0.00 0.00 60 1016.3
20260502184503 61 25 10.0 15.0 0.00 0.00 0.00 60 1016.3
20260502184003 61 19 11.0 15.0 0.00 0.00 0.00 60 1016.3
20260502183503 61 10 9.0 12.0 0.00 0.00 0.00 59 1016.3
20260502183214 61 11 8.0 11.0 0.00 0.00 0.00 59 1016.3
20260502182717 61 12 8.0 11.0 0.00 0.00 0.00 58 1016.3
20260502182003 62 12 7.0 10.0 0.00 0.00 0.00 58 1016.3
20260502181503 62 1 7.0 10.0 0.00 0.00 0.00 58 1016.3
20260502181216 62 357 8.0 11.0 0.00 0.00 0.00 57 1016.3
20260502180504 62 1 10.0 14.0 0.00 0.00 0.00 56 1016.3
20260502152004 70 10 13.0 21.0 0.00 0.00 0.00 41 1015.3
20260502151504 70 12 12.0 15.0 0.00 0.00 0.00 40 1015.3
20260502151213 70 18 12.0 15.0 0.00 0.00 0.00 40 1016.3
20260502150504 70 26 12.0 18.0 0.00 0.00 0.00 39 1016.3
20260502130503 71 34 12.0 18.0 0.00 0.00 0.00 37 1016.3
20260502130214 71 26 12.0 18.0 0.00 0.00 0.00 38 1016.3
20260502123503 71 19 10.0 13.0 0.00 0.00 0.00 36 1016.3
20260502123003 71 31 11.0 17.0 0.00 0.00 0.00 36 1016.3
20260502122717 71 20 12.0 17.0 0.00 0.00 0.00 35 1016.3
20260502122215 71 20 12.0 17.0 0.00 0.00 0.00 35 1016.3
20260502121503 71 17 14.0 27.0 0.00 0.00 0.00 35 1016.3
20260502121216 71 5 12.0 27.0 0.00 0.00 0.00 35 1016.3
20260502120503 71 10 11.0 17.0 0.00 0.00 0.00 35 1016.3
20260502120217 71 16 13.0 17.0 0.00 0.00 0.00 35 1016.3
20260502115715 71 7 12.0 17.0 0.00 0.00 0.00 35 1016.3
20260502115003 71 27 13.0 22.0 0.00 0.00 0.00 35 1016.3
20260502114003 71 329 11.0 24.0 0.00 0.00 0.00 34 1016.3
20260502113503 71 14 10.0 18.0 0.00 0.00 0.00 35 1016.3
20260502113004 71 37 11.0 18.0 0.00 0.00 0.00 34 1016.3
20260502112718 71 40 12.0 18.0 0.00 0.00 0.00 34 1016.3
20260502112216 71 17 12.0 19.0 0.00 0.00 0.00 33 1016.3
20260502111504 71 359 11.0 19.0 0.00 0.00 0.00 33 1016.3
20260502111004 71 9 10.0 17.0 0.00 0.00 0.00 33 1016.3
20260502110504 71 22 9.0 17.0 0.00 0.00 0.00 32 1017.3
20260502110004 71 23 9.0 14.0 0.00 0.00 0.00 31 1017.3
20260502105504 71 30 13.0 23.0 0.00 0.00 0.00 31 1017.3
20260502105004 70 29 16.0 23.0 0.00 0.00 0.00 31 1017.3
20260502104504 71 14 10.0 21.0 0.00 0.00 0.00 31 1017.3
20260502104214 71 9 7.0 14.0 0.00 0.00 0.00 32 1017.3
20260502103504 71 27 10.0 20.0 0.00 0.00 0.00 33 1017.3
20260502103215 70 23 11.0 20.0 0.00 0.00 0.00 33 1017.3
20260502102505 71 16 12.0 17.0 0.00 0.00 0.00 33 1017.3
20260502102004 70 16 12.0 17.0 0.00 0.00 0.00 33 1017.3
20260502101504 70 6 11.0 15.0 0.00 0.00 0.00 32 1017.3
20260502100215 70 25 8.0 12.0 0.00 0.00 0.00 32 1017.3
20260502091504 69 23 7.0 14.0 0.00 0.00 0.00 34 1017.3
20260502091215 69 33 7.0 12.0 0.00 0.00 0.00 33 1017.3
20260502090504 68 53 9.0 20.0 0.00 0.00 0.00 33 1017.3
20260502090216 68 49 9.0 20.0 0.00 0.00 0.00 34 1017.3
20260502071504 64 359 12.0 17.0 0.00 0.00 0.00 50 1017.3
20260502071004 64 359 11.0 17.0 0.00 0.00 0.00 50 1017.3
20260502070504 63 357 10.0 14.0 0.00 0.00 0.00 51 1017.3
20260502070004 63 359 10.0 14.0 0.00 0.00 0.00 51 1017.3
20260502065506 63 359 9.0 12.0 0.00 0.00 0.00 54 1017.3
20260502065004 63 5 8.0 12.0 0.00 0.00 0.00 55 1017.3
20260502064716 63 3 7.0 12.0 0.00 0.00 0.00 56 1017.3
20260502064004 62 9 7.0 12.0 0.00 0.00 0.00 59 1017.3
20260502063504 62 7 7.0 11.0 0.00 0.00 0.00 59 1017.3
20260502063004 61 6 8.0 10.0 0.00 0.00 0.00 60 1017.3
20260502062504 61 3 7.0 9.0 0.00 0.00 0.00 61 1017.3
20260502062004 61 354 6.0 9.0 0.00 0.00 0.00 62 1017.3
20260502061504 60 346 5.0 9.0 0.00 0.00 0.00 62 1017.3
20260502061217 60 335 6.0 9.0 0.00 0.00 0.00 62 1017.3
20260502060504 59 341 6.0 8.0 0.00 0.00 0.00 61 1017.3
20260502060004 59 352 5.0 9.0 0.00 0.00 0.00 63 1017.3
20260502055504 58 344 3.0 9.0 0.00 0.00 0.00 66 1017.3
20260502055004 58 308 2.0 4.0 0.00 0.00 0.00 66 1017.3
20260502054504 57 318 3.0 5.0 0.00 0.00 0.00 66 1017.3
20260502054004 57 328 5.0 9.0 0.00 0.00 0.00 65 1017.3
20260502053718 56 326 6.0 9.0 0.00 0.00 0.00 65 1017.3
20260502053004 55 330 5.0 7.0 0.00 0.00 0.00 67 1017.3
20260502052504 54 331 5.0 7.0 0.00 0.00 0.00 69 1017.3
20260502052217 54 329 5.0 7.0 0.00 0.00 0.00 69 1017.3
20260502051504 53 330 4.0 7.0 0.00 0.00 0.00 69 1017.3
20260502051004 53 355 4.0 6.0 0.00 0.00 0.00 69 1017.3
20260502050503 52 354 5.0 6.0 0.00 0.00 0.00 69 1017.3
20260502050004 52 346 4.0 6.0 0.00 0.00 0.00 69 1017.3
20260502045504 51 348 5.0 6.0 0.00 0.00 0.00 69 1017.3
20260502045003 51 350 5.0 6.0 0.00 0.00 0.00 69 1017.3
20260502044504 51 348 5.0 6.0 0.00 0.00 0.00 69 1017.3
20260502044004 51 356 5.0 6.0 0.00 0.00 0.00 69 1017.3
20260502043713 51 359 5.0 7.0 0.00 0.00 0.00 69 1017.3
20260502043003 51 359 5.0 7.0 0.00 0.00 0.00 69 1017.3
20260502042714 51 355 5.0 7.0 0.00 0.00 0.00 69 1017.3
20260502042003 52 356 6.0 9.0 0.00 0.00 0.00 70 1016.3
20260502041504 52 356 7.0 9.0 0.00 0.00 0.00 70 1016.3
20260502041003 51 12 7.0 9.0 0.00 0.00 0.00 70 1016.3
20260502040503 51 14 8.0 10.0 0.00 0.00 0.00 71 1016.3
20260502040004 51 1 7.0 10.0 0.00 0.00 0.00 71 1016.3
20260502035503 51 358 7.0 9.0 0.00 0.00 0.00 72 1016.3
20260502035003 50 354 6.0 9.0 0.00 0.00 0.00 71 1016.3
20260502034503 50 356 5.0 5.0 0.00 0.00 0.00 71 1016.3
20260502034003 50 356 5.0 5.0 0.00 0.00 0.00 70 1016.3
20260502033503 50 337 4.0 5.0 0.00 0.00 0.00 70 1016.3
20260502033005 50 333 3.0 4.0 0.00 0.00 0.00 70 1016.3
20260502032503 50 334 3.0 4.0 0.00 0.00 0.00 70 1016.3
20260502032213 50 332 3.0 4.0 0.00 0.00 0.00 70 1017.3
20260502031716 50 343 4.0 4.0 0.00 0.00 0.00 70 1017.3
20260502031004 51 338 4.0 5.0 0.00 0.00 0.00 70 1017.3
20260502030505 51 321 5.0 6.0 0.00 0.00 0.00 70 1017.3
20260502030004 52 316 4.0 6.0 0.00 0.00 0.00 69 1017.3
20260502025504 52 333 4.0 5.0 0.00 0.00 0.00 69 1017.3
20260502025004 52 338 4.0 5.0 0.00 0.00 0.00 69 1016.3
20260502024719 52 334 5.0 5.0 0.00 0.00 0.00 69 1016.3
20260502024004 53 339 5.0 6.0 0.00 0.00 0.00 69 1016.3
20260502023504 53 359 5.0 6.0 0.00 0.00 0.00 69 1017.3
20260502023004 53 9 5.0 6.0 0.00 0.00 0.00 69 1017.3
20260502022504 53 357 5.0 6.0 0.00 0.00 0.00 69 1017.3
20260502022004 53 11 6.0 9.0 0.00 0.00 0.00 70 1017.3
20260502021504 53 5 7.0 9.0 0.00 0.00 0.00 70 1017.3
20260502021214 53 2 7.0 9.0 0.00 0.00 0.00 70 1017.3
20260502020504 54 351 5.0 7.0 0.00 0.00 0.00 70 1017.3
20260502020004 54 348 4.0 6.0 0.00 0.00 0.00 70 1017.3
20260502015506 54 357 3.0 6.0 0.00 0.00 0.00 71 1017.3
20260502015216 54 9 4.0 5.0 0.00 0.00 0.00 71 1016.3
20260502014504 54 19 5.0 7.0 0.00 0.00 0.00 72 1016.3
20260502014217 54 10 5.0 7.0 0.00 0.00 0.00 72 1016.3
20260502013715 54 1 5.0 8.0 0.00 0.00 0.00 73 1016.3
20260502013004 53 12 5.0 8.0 0.00 0.00 0.00 73 1016.3
20260502012716 53 13 5.0 7.0 0.00 0.00 0.00 73 1016.3
20260502012004 52 359 5.0 7.0 0.00 0.00 0.00 72 1016.3
20260502011504 52 354 4.0 5.0 0.00 0.00 0.00 71 1016.3
20260502011004 52 357 3.0 4.0 0.00 0.00 0.00 71 1016.3
20260502010713 53 4 4.0 6.0 0.00 0.00 0.00 71 1016.3
20260502010004 53 7 5.0 7.0 0.00 0.00 0.00 71 1016.3
20260502005714 53 5 6.0 7.0 0.00 0.00 0.00 71 1016.3
20260502005004 52 353 5.0 7.0 0.00 0.00 0.00 70 1017.3
20260502004504 51 4 4.0 5.0 0.00 0.00 0.00 69 1017.3
20260502004004 51 7 3.0 5.0 0.00 0.00 0.00 68 1017.3
20260502003716 51 357 3.0 4.0 0.00 0.00 0.00 68 1017.3
20260502003003 51 350 3.0 4.0 0.00 0.00 0.00 68 1017.3
20260502002717 51 348 3.0 5.0 0.00 0.00 0.00 68 1017.3
20260502002004 51 334 4.0 5.0 0.00 0.00 0.00 68 1016.3
20260502001718 51 335 4.0 5.0 0.00 0.00 0.00 67 1016.3
20260502001216 52 335 4.0 5.0 0.00 0.00 0.00 67 1016.3
20260502000503 52 321 5.0 7.0 0.00 0.00 0.00 67 1017.3
20260502000004 53 314 5.0 7.0 0.00 0.00 0.00 67 1017.3
20260501235503 53 318 5.0 7.0 0.00 0.00 0.00 67 1017.3
20260501235003 53 327 4.0 7.0 0.00 0.00 0.00 67 1017.3
20260501234503 52 347 3.0 4.0 0.00 0.00 0.00 67 1017.3
20260501234213 52 352 3.0 5.0 0.00 0.00 0.00 67 1017.3
20260501233503 52 357 4.0 5.0 0.00 0.00 0.00 67 1017.3
20260501233003 53 353 4.0 5.0 0.00 0.00 0.00 67 1017.3
20260501232503 53 340 4.0 6.0 0.00 0.00 0.00 66 1017.3
20260501232215 53 338 4.0 6.0 0.00 0.00 0.00 66 1017.3
20260501231503 54 334 4.0 5.0 0.00 0.00 0.00 65 1017.3
20260501231003 54 324 4.0 5.0 0.00 0.00 0.00 65 1017.3
20260501230714 54 323 4.0 5.0 0.00 0.00 0.00 64 1017.3
20260501230004 54 318 4.0 5.0 0.00 0.00 0.00 64 1017.3
20260501225503 54 330 3.0 4.0 0.00 0.00 0.00 63 1017.3
20260501225213 54 336 3.0 4.0 0.00 0.00 0.00 63 1017.3
20260501224504 55 2 2.0 4.0 0.00 0.00 0.00 63 1017.3
20260501224005 55 10 2.0 3.0 0.00 0.00 0.00 63 1017.3
20260501223504 55 7 2.0 4.0 0.00 0.00 0.00 62 1017.3
20260501223004 55 345 2.0 4.0 0.00 0.00 0.00 62 1017.3
20260501222505 55 345 2.0 3.0 0.00 0.00 0.00 62 1017.3
20260501222216 55 345 2.0 3.0 0.00 0.00 0.00 62 1016.3
20260501221504 55 339 3.0 4.0 0.00 0.00 0.00 61 1016.3
20260501221004 56 329 3.0 4.0 0.00 0.00 0.00 61 1016.3
20260501220715 56 335 3.0 4.0 0.00 0.00 0.00 61 1016.3
20260501220004 56 343 2.0 3.0 0.00 0.00 0.00 61 1016.3
20260501215505 56 333 2.0 3.0 0.00 0.00 0.00 60 1016.3
20260501215004 56 328 2.0 4.0 0.00 0.00 0.00 60 1016.3
20260501214505 56 319 2.0 4.0 0.00 0.00 0.00 60 1016.3
20260501214004 57 316 3.0 4.0 0.00 0.00 0.00 59 1016.3
20260501213504 57 323 2.0 4.0 0.00 0.00 0.00 59 1016.3
20260501213004 58 11 2.0 5.0 0.00 0.00 0.00 59 1016.3
20260501212504 58 14 3.0 5.0 0.00 0.00 0.00 59 1016.3
20260501212217 58 21 5.0 9.0 0.00 0.00 0.00 59 1016.3
20260501211715 59 31 8.0 11.0 0.00 0.00 0.00 58 1016.3
20260501211218 59 32 10.0 14.0 0.00 0.00 0.00 58 1016.3
20260501210504 59 25 12.0 15.0 0.00 0.00 0.00 58 1016.3
20260501210004 59 20 10.0 15.0 0.00 0.00 0.00 58 1016.3
20260501205504 59 7 10.0 14.0 0.00 0.00 0.00 58 1016.3
20260501205004 59 14 11.0 15.0 0.00 0.00 0.00 58 1015.3
20260501204504 59 28 11.0 15.0 0.00 0.00 0.00 59 1015.3
20260501204004 59 21 10.0 14.0 0.00 0.00 0.00 59 1015.3
20260501203504 59 13 9.0 12.0 0.00 0.00 0.00 60 1015.3
20260501203004 59 11 11.0 18.0 0.00 0.00 0.00 60 1015.3
20260501202504 59 10 13.0 18.0 0.00 0.00 0.00 60 1015.3
20260501202005 59 15 11.0 17.0 0.00 0.00 0.00 60 1015.3
20260501201504 60 17 10.0 14.0 0.00 0.00 0.00 60 1015.3
20260501201003 60 21 11.0 13.0 0.00 0.00 0.00 60 1015.3
20260501200504 60 22 11.0 14.0 0.00 0.00 0.00 60 1015.3
20260501200004 60 23 10.0 14.0 0.00 0.00 0.00 60 1015.3
20260501195504 60 11 10.0 12.0 0.00 0.00 0.00 60 1015.3
20260501195004 60 360 8.0 12.0 0.00 0.00 0.00 60 1015.3
20260501194503 60 2 8.0 10.0 0.00 0.00 0.00 60 1015.3
20260501194216 60 8 8.0 11.0 0.00 0.00 0.00 60 1015.3
20260501193503 60 21 9.0 12.0 0.00 0.00 0.00 60 1015.3